Powrót do katalogu

STARLINK-6046

AktywnyŁącznośćVLEO
NORAD 56792·PAYLOAD·🇺🇸 United States

Wystrzelony May 31, 2023 z Vandenberg Space Force Base

Loading…

Następne Przeloty (najbliższe 24 godziny)

TLE

ŚwieżeSource: CelesTrak SupGP

Epoka: Sep 15, 2026, 01:29 UTC

1 56792C 23078AB  26258.06229167 -.00045891  00000+0 -38459-2 0  2582
2 56792  70.0013 227.1282 0003016 270.8234  54.3039 14.98353201    13

Śledź STARLINK-6046 w czasie rzeczywistym z AllMySat

Download on the App Store